Year,Month,Day,Hour,Minute,Value (Times are PST for temperature in C)
2018,08,05,00,00,17.80
2018,08,05,00,01,17.80
2018,08,05,00,02,17.80
2018,08,05,00,03,17.80
2018,08,05,00,04,17.80
2018,08,05,00,05,17.80
2018,08,05,00,06,17.70
2018,08,05,00,07,17.70
2018,08,05,00,08,17.70
2018,08,05,00,09,17.70
2018,08,05,00,10,17.70
2018,08,05,00,11,17.70
2018,08,05,00,12,17.70
2018,08,05,00,13,17.70
2018,08,05,00,14,17.70
2018,08,05,00,15,17.70
2018,08,05,00,16,17.70
2018,08,05,00,17,17.70
2018,08,05,00,18,17.70
2018,08,05,00,19,17.70
2018,08,05,00,20,17.70
2018,08,05,00,21,17.70
2018,08,05,00,22,17.70
2018,08,05,00,23,17.70
2018,08,05,00,24,17.70
2018,08,05,00,25,17.70
2018,08,05,00,26,17.70
2018,08,05,00,27,17.70
2018,08,05,00,28,17.60
2018,08,05,00,29,17.60
2018,08,05,00,30,17.60
2018,08,05,00,31,17.60
2018,08,05,00,32,17.60
2018,08,05,00,33,17.60
2018,08,05,00,34,17.60
2018,08,05,00,35,17.60
2018,08,05,00,36,17.60
2018,08,05,00,37,17.60
2018,08,05,00,38,17.50
2018,08,05,00,39,17.50
2018,08,05,00,40,17.50
2018,08,05,00,41,17.50
2018,08,05,00,42,17.50
2018,08,05,00,43,17.50
2018,08,05,00,44,17.40
2018,08,05,00,45,17.40
2018,08,05,00,46,17.40
2018,08,05,00,47,17.40
2018,08,05,00,48,17.40
2018,08,05,00,49,17.30
2018,08,05,00,50,17.30
2018,08,05,00,51,17.30
2018,08,05,00,52,17.30
2018,08,05,00,53,17.30
2018,08,05,00,54,17.30
2018,08,05,00,55,17.30
2018,08,05,00,56,17.30
2018,08,05,00,57,17.30
2018,08,05,00,58,17.30
2018,08,05,00,59,17.30
2018,08,05,01,00,17.30
2018,08,05,01,01,17.30
2018,08,05,01,02,17.30
2018,08,05,01,03,17.20
2018,08,05,01,04,17.20
2018,08,05,01,05,17.20
2018,08,05,01,06,17.20
2018,08,05,01,07,17.10
2018,08,05,01,08,17.10
2018,08,05,01,09,17.10
2018,08,05,01,10,17.00
2018,08,05,01,11,17.00
2018,08,05,01,12,16.90
2018,08,05,01,13,16.80
2018,08,05,01,14,16.80
2018,08,05,01,15,16.80
2018,08,05,01,16,16.70
2018,08,05,01,17,16.70
2018,08,05,01,18,16.70
2018,08,05,01,19,16.60
2018,08,05,01,20,16.60
2018,08,05,01,21,16.50
2018,08,05,01,22,16.50
2018,08,05,01,23,16.40
2018,08,05,01,24,16.40
2018,08,05,01,25,16.40
2018,08,05,01,26,16.40
2018,08,05,01,27,16.40
2018,08,05,01,28,16.30
2018,08,05,01,29,16.30
2018,08,05,01,30,16.30
2018,08,05,01,31,16.20
2018,08,05,01,32,16.20
2018,08,05,01,33,16.20
2018,08,05,01,34,16.20
2018,08,05,01,35,16.20
2018,08,05,01,36,16.20
2018,08,05,01,37,16.20
2018,08,05,01,38,16.20
2018,08,05,01,39,16.20
2018,08,05,01,40,16.10
2018,08,05,01,41,16.10
2018,08,05,01,42,16.10
2018,08,05,01,43,16.10
2018,08,05,01,44,16.10
2018,08,05,01,45,16.10
2018,08,05,01,46,16.10
2018,08,05,01,47,16.10
2018,08,05,01,48,16.10
2018,08,05,01,49,16.10
2018,08,05,01,50,16.00
2018,08,05,01,51,16.00
2018,08,05,01,52,16.00
2018,08,05,01,53,16.00
2018,08,05,01,54,16.00
2018,08,05,01,55,16.00
2018,08,05,01,56,16.00
2018,08,05,01,57,16.00
2018,08,05,01,58,16.00
2018,08,05,01,59,16.00
2018,08,05,02,00,16.00
2018,08,05,02,01,16.00
2018,08,05,02,02,16.00
2018,08,05,02,03,16.00
2018,08,05,02,04,16.00
2018,08,05,02,05,16.00
2018,08,05,02,06,16.10
2018,08,05,02,07,16.10
2018,08,05,02,08,16.10
2018,08,05,02,09,16.10
2018,08,05,02,10,16.10
2018,08,05,02,11,16.10
2018,08,05,02,12,16.10
2018,08,05,02,13,16.10
2018,08,05,02,14,16.10
2018,08,05,02,15,16.10
2018,08,05,02,16,16.10
2018,08,05,02,17,16.10
2018,08,05,02,18,16.10
2018,08,05,02,19,16.20
2018,08,05,02,20,16.20
2018,08,05,02,21,16.20
2018,08,05,02,22,16.20
2018,08,05,02,23,16.20
2018,08,05,02,24,16.20
2018,08,05,02,25,16.20
2018,08,05,02,26,16.20
2018,08,05,02,27,16.20
2018,08,05,02,28,16.20
2018,08,05,02,29,16.20
2018,08,05,02,30,16.20
2018,08,05,02,31,16.20
2018,08,05,02,32,16.20
2018,08,05,02,33,16.20
2018,08,05,02,34,16.20
2018,08,05,02,35,16.20
2018,08,05,02,36,16.20
2018,08,05,02,37,16.20
2018,08,05,02,38,16.20
2018,08,05,02,39,16.20
2018,08,05,02,40,16.20
2018,08,05,02,41,16.20
2018,08,05,02,42,16.20
2018,08,05,02,43,16.30
2018,08,05,02,44,16.30
2018,08,05,02,45,16.30
2018,08,05,02,46,16.30
2018,08,05,02,47,16.40
2018,08,05,02,48,16.40
2018,08,05,02,49,16.40
2018,08,05,02,50,16.40
2018,08,05,02,51,16.40
2018,08,05,02,52,16.40
2018,08,05,02,53,16.40
2018,08,05,02,54,16.40
2018,08,05,02,55,16.40
2018,08,05,02,56,16.40
2018,08,05,02,57,16.50
2018,08,05,02,58,16.50
2018,08,05,02,59,16.50
2018,08,05,03,00,16.50
2018,08,05,03,01,16.60
2018,08,05,03,02,16.60
2018,08,05,03,03,16.60
2018,08,05,03,04,16.60
2018,08,05,03,05,16.60
2018,08,05,03,06,16.60
2018,08,05,03,07,16.60
2018,08,05,03,08,16.60
2018,08,05,03,09,16.60
2018,08,05,03,10,16.60
2018,08,05,03,11,16.60
2018,08,05,03,12,16.60
2018,08,05,03,13,16.60
2018,08,05,03,14,16.60
2018,08,05,03,15,16.60
2018,08,05,03,16,16.60
2018,08,05,03,17,16.60
2018,08,05,03,18,16.60
2018,08,05,03,19,16.60
2018,08,05,03,20,16.60
2018,08,05,03,21,16.60
2018,08,05,03,22,16.60
2018,08,05,03,23,16.60
2018,08,05,03,24,16.60
2018,08,05,03,25,16.60
2018,08,05,03,26,16.50
2018,08,05,03,27,16.50
2018,08,05,03,28,16.50
2018,08,05,03,29,16.50
2018,08,05,03,30,16.40
2018,08,05,03,31,16.40
2018,08,05,03,32,16.40
2018,08,05,03,33,16.40
2018,08,05,03,34,16.40
2018,08,05,03,35,16.40
2018,08,05,03,36,16.40
2018,08,05,03,37,16.30
2018,08,05,03,38,16.30
2018,08,05,03,39,16.30
2018,08,05,03,40,16.30
2018,08,05,03,41,16.30
2018,08,05,03,42,16.30
2018,08,05,03,43,16.30
2018,08,05,03,44,16.30
2018,08,05,03,45,16.30
2018,08,05,03,46,16.30
2018,08,05,03,47,16.30
2018,08,05,03,48,16.30
2018,08,05,03,49,16.20
2018,08,05,03,50,16.20
2018,08,05,03,51,16.20
2018,08,05,03,52,16.20
2018,08,05,03,53,16.20
2018,08,05,03,54,16.20
2018,08,05,03,55,16.20
2018,08,05,03,56,16.10
2018,08,05,03,57,16.10
2018,08,05,03,58,16.10
2018,08,05,03,59,16.10
2018,08,05,04,00,16.10
2018,08,05,04,01,16.10
2018,08,05,04,02,16.10
2018,08,05,04,03,16.10
2018,08,05,04,04,16.10
2018,08,05,04,05,16.00
2018,08,05,04,06,16.00
2018,08,05,04,07,16.00
2018,08,05,04,08,16.00
2018,08,05,04,09,16.00
2018,08,05,04,10,16.00
2018,08,05,04,11,16.00
2018,08,05,04,12,16.00
2018,08,05,04,13,16.00
2018,08,05,04,14,15.90
2018,08,05,04,15,15.90
2018,08,05,04,16,15.90
2018,08,05,04,17,15.90
2018,08,05,04,18,15.90
2018,08,05,04,19,15.90
2018,08,05,04,20,15.90
2018,08,05,04,21,15.90
2018,08,05,04,22,15.90
2018,08,05,04,23,15.90
2018,08,05,04,24,15.90
2018,08,05,04,25,15.90
2018,08,05,04,26,15.90
2018,08,05,04,27,15.90
2018,08,05,04,28,15.90
2018,08,05,04,29,15.90
2018,08,05,04,30,15.90
2018,08,05,04,31,15.90
2018,08,05,04,32,15.90
2018,08,05,04,33,15.90
2018,08,05,04,34,15.90
2018,08,05,04,35,16.00
2018,08,05,04,36,16.00
2018,08,05,04,37,16.00
2018,08,05,04,38,16.00
2018,08,05,04,39,16.00
2018,08,05,04,40,16.00
2018,08,05,04,41,16.10
2018,08,05,04,42,16.10
2018,08,05,04,43,16.10
2018,08,05,04,44,16.10
2018,08,05,04,45,16.20
2018,08,05,04,46,16.20
2018,08,05,04,47,16.20
2018,08,05,04,48,16.30
2018,08,05,04,49,16.30
2018,08,05,04,50,16.30
2018,08,05,04,51,16.30
2018,08,05,04,52,16.30
2018,08,05,04,53,16.30
2018,08,05,04,54,16.30
2018,08,05,04,55,16.30
2018,08,05,04,56,16.30
2018,08,05,04,57,16.30
2018,08,05,04,58,16.30
2018,08,05,04,59,16.30
2018,08,05,05,00,16.30
2018,08,05,05,01,16.20
2018,08,05,05,02,16.30
2018,08,05,05,03,16.30
2018,08,05,05,04,16.30
2018,08,05,05,05,16.30
2018,08,05,05,06,16.30
2018,08,05,05,07,16.20
2018,08,05,05,08,16.20
2018,08,05,05,09,16.20
2018,08,05,05,10,16.20
2018,08,05,05,11,16.20
2018,08,05,05,12,16.20
2018,08,05,05,13,16.20
2018,08,05,05,14,16.20
2018,08,05,05,15,16.20
2018,08,05,05,16,16.20
2018,08,05,05,17,16.20
2018,08,05,05,18,16.20
2018,08,05,05,19,16.20
2018,08,05,05,20,16.20
2018,08,05,05,21,16.20
2018,08,05,05,22,16.20
2018,08,05,05,23,16.10
2018,08,05,05,24,16.10
2018,08,05,05,25,16.10
2018,08,05,05,26,16.10
2018,08,05,05,27,16.10
2018,08,05,05,28,16.10
2018,08,05,05,29,16.10
2018,08,05,05,30,16.10
2018,08,05,05,31,16.10
2018,08,05,05,32,16.10
2018,08,05,05,33,16.00
2018,08,05,05,34,16.00
2018,08,05,05,35,16.00
2018,08,05,05,36,16.00
2018,08,05,05,37,16.00
2018,08,05,05,38,16.00
2018,08,05,05,39,16.00
2018,08,05,05,40,16.00
2018,08,05,05,41,16.00
2018,08,05,05,42,16.00
2018,08,05,05,43,16.00
2018,08,05,05,44,16.00
2018,08,05,05,45,16.00
2018,08,05,05,46,15.90
2018,08,05,05,47,15.90
2018,08,05,05,48,15.90
2018,08,05,05,49,15.90
2018,08,05,05,50,15.90
2018,08,05,05,51,15.90
2018,08,05,05,52,15.90
2018,08,05,05,53,15.90
2018,08,05,05,54,15.90
2018,08,05,05,55,15.90
2018,08,05,05,56,15.90
2018,08,05,05,57,15.90
2018,08,05,05,58,15.80
2018,08,05,05,59,15.80
2018,08,05,06,00,15.80
2018,08,05,06,01,15.80
2018,08,05,06,02,15.80
2018,08,05,06,03,15.80
2018,08,05,06,04,15.80
2018,08,05,06,05,15.80
2018,08,05,06,06,15.80
2018,08,05,06,07,15.80
2018,08,05,06,08,15.80
2018,08,05,06,09,15.80
2018,08,05,06,10,15.80
2018,08,05,06,11,15.80
2018,08,05,06,12,15.70
2018,08,05,06,13,15.80
2018,08,05,06,14,15.80
2018,08,05,06,15,15.80
2018,08,05,06,16,15.80
2018,08,05,06,17,15.80
2018,08,05,06,18,15.80
2018,08,05,06,19,15.80
2018,08,05,06,20,15.80
2018,08,05,06,21,15.80
2018,08,05,06,22,15.80
2018,08,05,06,23,15.80
2018,08,05,06,24,15.80
2018,08,05,06,25,15.80
2018,08,05,06,26,15.80
2018,08,05,06,27,15.80
2018,08,05,06,28,15.80
2018,08,05,06,29,15.80
2018,08,05,06,30,15.80
2018,08,05,06,31,15.90
2018,08,05,06,32,15.90
2018,08,05,06,33,15.90
2018,08,05,06,34,15.90
2018,08,05,06,35,15.90
2018,08,05,06,36,15.90
2018,08,05,06,37,15.90
2018,08,05,06,38,15.90
2018,08,05,06,39,15.90
2018,08,05,06,40,15.90
2018,08,05,06,41,15.90
2018,08,05,06,42,15.90
2018,08,05,06,43,15.90
2018,08,05,06,44,16.00
2018,08,05,06,45,16.00
2018,08,05,06,46,16.00
2018,08,05,06,47,16.00
2018,08,05,06,48,16.10
2018,08,05,06,49,16.10
2018,08,05,06,50,16.10
2018,08,05,06,51,16.10
2018,08,05,06,52,16.20
2018,08,05,06,53,16.20
2018,08,05,06,54,16.20
2018,08,05,06,55,16.20
2018,08,05,06,56,16.20
2018,08,05,06,57,16.30
2018,08,05,06,58,16.30
2018,08,05,06,59,16.30
2018,08,05,07,00,16.30
2018,08,05,07,01,16.40
2018,08,05,07,02,16.40
2018,08,05,07,03,16.50
2018,08,05,07,04,16.50
2018,08,05,07,05,16.60
2018,08,05,07,06,16.60
2018,08,05,07,07,16.60
2018,08,05,07,08,16.70
2018,08,05,07,09,16.70
2018,08,05,07,10,16.70
2018,08,05,07,11,16.80
2018,08,05,07,12,16.80
2018,08,05,07,13,16.90
2018,08,05,07,14,16.90
2018,08,05,07,15,16.90
2018,08,05,07,16,17.00
2018,08,05,07,17,17.00
2018,08,05,07,18,17.00
2018,08,05,07,19,17.10
2018,08,05,07,20,17.10
2018,08,05,07,21,17.10
2018,08,05,07,22,17.20
2018,08,05,07,23,17.20
2018,08,05,07,24,17.20
2018,08,05,07,25,17.30
2018,08,05,07,26,17.30
2018,08,05,07,27,17.30
2018,08,05,07,28,17.30
2018,08,05,07,29,17.30
2018,08,05,07,30,17.40
2018,08,05,07,31,17.40
2018,08,05,07,32,17.40
2018,08,05,07,33,17.40
2018,08,05,07,34,17.40
2018,08,05,07,35,17.40
2018,08,05,07,36,17.40
2018,08,05,07,37,17.40
2018,08,05,07,38,17.40
2018,08,05,07,39,17.40
2018,08,05,07,40,17.40
2018,08,05,07,41,17.50
2018,08,05,07,42,17.50
2018,08,05,07,43,17.50
2018,08,05,07,44,17.60
2018,08,05,07,45,17.60
2018,08,05,07,46,17.60
2018,08,05,07,47,17.70
2018,08,05,07,48,17.70
2018,08,05,07,49,17.80
2018,08,05,07,50,17.80
2018,08,05,07,51,17.80
2018,08,05,07,52,17.90
2018,08,05,07,53,17.90
2018,08,05,07,54,17.90
2018,08,05,07,55,18.00
2018,08,05,07,56,18.00
2018,08,05,07,57,18.00
2018,08,05,07,58,18.10
2018,08,05,07,59,18.10
2018,08,05,08,00,18.10
2018,08,05,08,01,18.20
2018,08,05,08,02,18.20
2018,08,05,08,03,18.20
2018,08,05,08,04,18.30
2018,08,05,08,05,18.30
2018,08,05,08,06,18.30
2018,08,05,08,07,18.30
2018,08,05,08,08,18.30
2018,08,05,08,09,18.40
2018,08,05,08,10,18.40
2018,08,05,08,11,18.50
2018,08,05,08,12,18.50
2018,08,05,08,13,18.50
2018,08,05,08,14,18.60
2018,08,05,08,15,18.60
2018,08,05,08,16,18.60
2018,08,05,08,17,18.70
2018,08,05,08,18,18.70
2018,08,05,08,19,18.80
2018,08,05,08,20,18.80
2018,08,05,08,21,18.80
2018,08,05,08,22,18.90
2018,08,05,08,23,18.90
2018,08,05,08,24,18.90
2018,08,05,08,25,18.90
2018,08,05,08,26,19.00
2018,08,05,08,27,19.00
2018,08,05,08,28,19.10
2018,08,05,08,29,19.10
2018,08,05,08,30,19.10
2018,08,05,08,31,19.20
2018,08,05,08,32,19.20
2018,08,05,08,33,19.30
2018,08,05,08,34,19.30
2018,08,05,08,35,19.30
2018,08,05,08,36,19.30
2018,08,05,08,37,19.40
2018,08,05,08,38,19.40
2018,08,05,08,39,19.50
2018,08,05,08,40,19.60
2018,08,05,08,41,19.60
2018,08,05,08,42,19.70
2018,08,05,08,43,19.70
2018,08,05,08,44,19.80
2018,08,05,08,45,19.80
2018,08,05,08,46,19.90
2018,08,05,08,47,19.90
2018,08,05,08,48,20.00
2018,08,05,08,49,20.10
2018,08,05,08,50,20.10
2018,08,05,08,51,20.20
2018,08,05,08,52,20.20
2018,08,05,08,53,20.20
2018,08,05,08,54,20.20
2018,08,05,08,55,20.20
2018,08,05,08,56,20.20
2018,08,05,08,57,20.20
2018,08,05,08,58,20.30
2018,08,05,08,59,20.30
2018,08,05,09,00,20.40
2018,08,05,09,01,20.40
2018,08,05,09,02,20.40
2018,08,05,09,03,20.40
2018,08,05,09,04,20.50
2018,08,05,09,05,20.50
2018,08,05,09,06,20.60
2018,08,05,09,07,20.60
2018,08,05,09,08,20.60
2018,08,05,09,09,20.60
2018,08,05,09,10,20.70
2018,08,05,09,11,20.80
2018,08,05,09,12,20.80
2018,08,05,09,13,20.90
2018,08,05,09,14,20.90
2018,08,05,09,15,20.90
2018,08,05,09,16,20.90
2018,08,05,09,17,20.90
2018,08,05,09,18,21.00
2018,08,05,09,19,21.00
2018,08,05,09,20,21.10
2018,08,05,09,21,21.20
2018,08,05,09,22,21.30
2018,08,05,09,23,21.30
2018,08,05,09,24,21.30
2018,08,05,09,25,21.30
2018,08,05,09,26,21.30
2018,08,05,09,27,21.40
2018,08,05,09,28,21.40
2018,08,05,09,29,21.50
2018,08,05,09,30,21.60
2018,08,05,09,31,21.60
2018,08,05,09,32,21.60
2018,08,05,09,33,21.60
2018,08,05,09,34,21.60
2018,08,05,09,35,21.60
2018,08,05,09,36,21.70
2018,08,05,09,37,21.70
2018,08,05,09,38,21.70
2018,08,05,09,39,21.80
2018,08,05,09,40,21.80
2018,08,05,09,41,21.80
2018,08,05,09,42,21.80
2018,08,05,09,43,21.90
2018,08,05,09,44,21.90
2018,08,05,09,45,22.00
2018,08,05,09,46,21.90
2018,08,05,09,47,21.80
2018,08,05,09,48,21.70
2018,08,05,09,49,21.70
2018,08,05,09,50,21.70
2018,08,05,09,51,21.70
2018,08,05,09,52,21.70
2018,08,05,09,53,21.70
2018,08,05,09,54,21.70
2018,08,05,09,55,21.70
2018,08,05,09,56,21.70
2018,08,05,09,57,21.60
2018,08,05,09,58,21.60
2018,08,05,09,59,21.50
2018,08,05,10,00,21.50
2018,08,05,10,01,21.60
2018,08,05,10,02,21.70
2018,08,05,10,03,21.80
2018,08,05,10,04,21.80
2018,08,05,10,05,21.90
2018,08,05,10,06,22.00
2018,08,05,10,07,22.10
2018,08,05,10,08,22.10
2018,08,05,10,09,22.20
2018,08,05,10,10,22.30
2018,08,05,10,11,22.40
2018,08,05,10,12,22.40
2018,08,05,10,13,22.50
2018,08,05,10,14,22.50
2018,08,05,10,15,22.50
2018,08,05,10,16,22.50
2018,08,05,10,17,22.40
2018,08,05,10,18,22.40
2018,08,05,10,19,22.40
2018,08,05,10,20,22.40
2018,08,05,10,21,22.40
2018,08,05,10,22,22.30
2018,08,05,10,23,22.30
2018,08,05,10,24,22.30
2018,08,05,10,25,22.30
2018,08,05,10,26,22.30
2018,08,05,10,27,22.30
2018,08,05,10,28,22.40
2018,08,05,10,29,22.40
2018,08,05,10,30,22.30
2018,08,05,10,31,22.30
2018,08,05,10,32,22.30
2018,08,05,10,33,22.40
2018,08,05,10,34,22.40
2018,08,05,10,35,22.50
2018,08,05,10,36,22.60
2018,08,05,10,37,22.60
2018,08,05,10,38,22.60
2018,08,05,10,39,22.60
2018,08,05,10,40,22.60
2018,08,05,10,41,22.60
2018,08,05,10,42,22.50
2018,08,05,10,43,22.50
2018,08,05,10,44,22.40
2018,08,05,10,45,22.40
2018,08,05,10,46,22.50
2018,08,05,10,47,22.50
2018,08,05,10,48,22.50
2018,08,05,10,49,22.60
2018,08,05,10,50,22.70
2018,08,05,10,51,22.80
2018,08,05,10,52,22.90
2018,08,05,10,53,23.00
2018,08,05,10,54,23.10
2018,08,05,10,55,23.10
2018,08,05,10,56,23.10
2018,08,05,10,57,23.10
2018,08,05,10,58,23.20
2018,08,05,10,59,23.20
2018,08,05,11,00,23.10
2018,08,05,11,01,23.10
2018,08,05,11,02,23.10
2018,08,05,11,03,23.10
2018,08,05,11,04,23.00
2018,08,05,11,05,22.90
2018,08,05,11,06,22.80
2018,08,05,11,07,22.70
2018,08,05,11,08,22.70
2018,08,05,11,09,22.80
2018,08,05,11,10,22.90
2018,08,05,11,11,23.00
2018,08,05,11,12,23.10
2018,08,05,11,13,23.20
2018,08,05,11,14,23.20
2018,08,05,11,15,23.20
2018,08,05,11,16,23.10
2018,08,05,11,17,23.10
2018,08,05,11,18,23.10
2018,08,05,11,19,23.00
2018,08,05,11,20,22.80
2018,08,05,11,21,22.60
2018,08,05,11,22,22.50
2018,08,05,11,23,22.50
2018,08,05,11,24,22.40
2018,08,05,11,25,22.50
2018,08,05,11,26,22.50
2018,08,05,11,27,22.60
2018,08,05,11,28,22.80
2018,08,05,11,29,22.90
2018,08,05,11,30,23.00
2018,08,05,11,31,23.00
2018,08,05,11,32,23.10
2018,08,05,11,33,23.20
2018,08,05,11,34,23.30
2018,08,05,11,35,23.30
2018,08,05,11,36,23.30
2018,08,05,11,37,23.40
2018,08,05,11,38,23.50
2018,08,05,11,39,23.60
2018,08,05,11,40,23.70
2018,08,05,11,41,23.70
2018,08,05,11,42,23.80
2018,08,05,11,43,23.80
2018,08,05,11,44,23.80
2018,08,05,11,45,23.80
2018,08,05,11,46,23.90
2018,08,05,11,47,23.90
2018,08,05,11,48,23.90
2018,08,05,11,49,23.90
2018,08,05,11,50,24.00
2018,08,05,11,51,24.00
2018,08,05,11,52,24.10
2018,08,05,11,53,24.10
2018,08,05,11,54,24.20
2018,08,05,11,55,24.20
2018,08,05,11,56,24.20
2018,08,05,11,57,24.20
2018,08,05,11,58,24.30
2018,08,05,11,59,24.40
2018,08,05,12,00,24.40
2018,08,05,12,01,24.50
2018,08,05,12,02,24.50
2018,08,05,12,03,24.50
2018,08,05,12,04,24.60
2018,08,05,12,05,24.60
2018,08,05,12,06,24.70
2018,08,05,12,07,24.80
2018,08,05,12,08,24.80
2018,08,05,12,09,24.80
2018,08,05,12,10,24.80
2018,08,05,12,11,24.80
2018,08,05,12,12,24.80
2018,08,05,12,13,24.70
2018,08,05,12,14,24.70
2018,08,05,12,15,24.70
2018,08,05,12,16,24.70
2018,08,05,12,17,24.80
2018,08,05,12,18,24.90
2018,08,05,12,19,24.90
2018,08,05,12,20,24.90
2018,08,05,12,21,24.90
2018,08,05,12,22,24.90
2018,08,05,12,23,24.90
2018,08,05,12,24,25.00
2018,08,05,12,25,25.10
2018,08,05,12,26,25.20
2018,08,05,12,27,25.30
2018,08,05,12,28,25.50
2018,08,05,12,29,25.50
2018,08,05,12,30,25.60
2018,08,05,12,31,25.60
2018,08,05,12,32,25.60
2018,08,05,12,33,25.60
2018,08,05,12,34,25.60
2018,08,05,12,35,25.70
2018,08,05,12,36,25.70
2018,08,05,12,37,25.60
2018,08,05,12,38,25.70
2018,08,05,12,39,25.70
2018,08,05,12,40,25.70
2018,08,05,12,41,25.70
2018,08,05,12,42,25.60
2018,08,05,12,43,25.60
2018,08,05,12,44,25.60
2018,08,05,12,45,25.60
2018,08,05,12,46,25.60
2018,08,05,12,47,25.70
2018,08,05,12,48,25.60
2018,08,05,12,49,25.50
2018,08,05,12,50,25.50
2018,08,05,12,51,25.50
2018,08,05,12,52,25.60
2018,08,05,12,53,25.70
2018,08,05,12,54,25.80
2018,08,05,12,55,26.00
2018,08,05,12,56,26.10
2018,08,05,12,57,26.10
2018,08,05,12,58,26.20
2018,08,05,12,59,26.20
2018,08,05,13,00,26.20
2018,08,05,13,01,26.20
2018,08,05,13,02,26.20
2018,08,05,13,03,26.20
2018,08,05,13,04,26.20
2018,08,05,13,05,26.30
2018,08,05,13,06,26.30
2018,08,05,13,07,26.40
2018,08,05,13,08,26.50
2018,08,05,13,09,26.60
2018,08,05,13,10,26.60
2018,08,05,13,11,26.70
2018,08,05,13,12,26.70
2018,08,05,13,13,26.70
2018,08,05,13,14,26.70
2018,08,05,13,15,26.60
2018,08,05,13,16,26.40
2018,08,05,13,17,26.40
2018,08,05,13,18,26.40
2018,08,05,13,19,26.40
2018,08,05,13,20,26.50
2018,08,05,13,21,26.50
2018,08,05,13,22,26.60
2018,08,05,13,23,26.70
2018,08,05,13,24,26.90
2018,08,05,13,25,27.00
2018,08,05,13,26,27.10
2018,08,05,13,27,27.10
2018,08,05,13,28,27.10
2018,08,05,13,29,27.10
2018,08,05,13,30,27.00
2018,08,05,13,31,26.80
2018,08,05,13,32,26.60
2018,08,05,13,33,26.40
2018,08,05,13,34,26.30
2018,08,05,13,35,26.40
2018,08,05,13,36,26.50
2018,08,05,13,37,26.70
2018,08,05,13,38,26.80
2018,08,05,13,39,26.90
2018,08,05,13,40,27.00
2018,08,05,13,41,27.10
2018,08,05,13,42,27.20
2018,08,05,13,43,27.30
2018,08,05,13,44,27.20
2018,08,05,13,45,27.20
2018,08,05,13,46,27.10
2018,08,05,13,47,27.00
2018,08,05,13,48,26.90
2018,08,05,13,49,26.90
2018,08,05,13,50,26.90
2018,08,05,13,51,26.90
2018,08,05,13,52,27.00
2018,08,05,13,53,27.00
2018,08,05,13,54,27.00
2018,08,05,13,55,27.00
2018,08,05,13,56,27.00
2018,08,05,13,57,26.90
2018,08,05,13,58,26.80
2018,08,05,13,59,26.70
2018,08,05,14,00,26.80
2018,08,05,14,01,26.80
2018,08,05,14,02,26.90
2018,08,05,14,03,26.90
2018,08,05,14,04,26.80
2018,08,05,14,05,26.70
2018,08,05,14,06,26.70
2018,08,05,14,07,26.80
2018,08,05,14,08,26.90
2018,08,05,14,09,27.00
2018,08,05,14,10,27.10
2018,08,05,14,11,27.10
2018,08,05,14,12,27.20
2018,08,05,14,13,27.20
2018,08,05,14,14,27.10
2018,08,05,14,15,27.10
2018,08,05,14,16,27.10
2018,08,05,14,17,27.10
2018,08,05,14,18,27.00
2018,08,05,14,19,26.90
2018,08,05,14,20,26.90
2018,08,05,14,21,27.00
2018,08,05,14,22,27.00
2018,08,05,14,23,27.00
2018,08,05,14,24,27.00
2018,08,05,14,25,27.00
2018,08,05,14,26,27.10
2018,08,05,14,27,27.10
2018,08,05,14,28,27.10
2018,08,05,14,29,27.20
2018,08,05,14,30,27.30
2018,08,05,14,31,27.30
2018,08,05,14,32,27.40
2018,08,05,14,33,27.40
2018,08,05,14,34,27.30
2018,08,05,14,35,27.30
2018,08,05,14,36,27.30
2018,08,05,14,37,27.40
2018,08,05,14,38,27.50
2018,08,05,14,39,27.50
2018,08,05,14,40,27.50
2018,08,05,14,41,27.50
2018,08,05,14,42,27.40
2018,08,05,14,43,27.40
2018,08,05,14,44,27.50
2018,08,05,14,45,27.40
2018,08,05,14,46,27.30
2018,08,05,14,47,27.20
2018,08,05,14,48,27.00
2018,08,05,14,49,26.90
2018,08,05,14,50,26.90
2018,08,05,14,51,26.80
2018,08,05,14,52,26.80
2018,08,05,14,53,26.80
2018,08,05,14,54,26.80
2018,08,05,14,55,26.80
2018,08,05,14,56,26.90
2018,08,05,14,57,27.10
2018,08,05,14,58,27.20
2018,08,05,14,59,27.30
2018,08,05,15,00,27.40
2018,08,05,15,01,27.50
2018,08,05,15,02,27.50
2018,08,05,15,03,27.60
2018,08,05,15,04,27.70
2018,08,05,15,05,27.70
2018,08,05,15,06,27.70
2018,08,05,15,07,27.60
2018,08,05,15,08,27.60
2018,08,05,15,09,27.50
2018,08,05,15,10,27.40
2018,08,05,15,11,27.40
2018,08,05,15,12,27.50
2018,08,05,15,13,27.50
2018,08,05,15,14,27.60
2018,08,05,15,15,27.70
2018,08,05,15,16,27.80
2018,08,05,15,17,27.90
2018,08,05,15,18,28.00
2018,08,05,15,19,28.10
2018,08,05,15,20,28.10
2018,08,05,15,21,28.20
2018,08,05,15,22,28.30
2018,08,05,15,23,28.40
2018,08,05,15,24,28.40
2018,08,05,15,25,28.40
2018,08,05,15,26,28.40
2018,08,05,15,27,28.40
2018,08,05,15,28,28.40
2018,08,05,15,29,28.50
2018,08,05,15,30,28.50
2018,08,05,15,31,28.60
2018,08,05,15,32,28.60
2018,08,05,15,33,28.70
2018,08,05,15,34,28.60
2018,08,05,15,35,28.60
2018,08,05,15,36,28.60
2018,08,05,15,37,28.60
2018,08,05,15,38,28.50
2018,08,05,15,39,28.40
2018,08,05,15,40,28.30
2018,08,05,15,41,28.30
2018,08,05,15,42,28.30
2018,08,05,15,43,28.30
2018,08,05,15,44,28.40
2018,08,05,15,45,28.40
2018,08,05,15,46,28.50
2018,08,05,15,47,28.50
2018,08,05,15,48,28.50
2018,08,05,15,49,28.50
2018,08,05,15,50,28.50
2018,08,05,15,51,28.50
2018,08,05,15,52,28.50
2018,08,05,15,53,28.50
2018,08,05,15,54,28.50
2018,08,05,15,55,28.60
2018,08,05,15,56,28.50
2018,08,05,15,57,28.60
2018,08,05,15,58,28.60
2018,08,05,15,59,28.60
2018,08,05,16,00,28.60
2018,08,05,16,01,28.60
2018,08,05,16,02,28.50
2018,08,05,16,03,28.40
2018,08,05,16,04,28.30
2018,08,05,16,05,28.30
2018,08,05,16,06,28.30
2018,08,05,16,07,28.30
2018,08,05,16,08,28.20
2018,08,05,16,09,28.10
2018,08,05,16,10,28.00
2018,08,05,16,11,27.80
2018,08,05,16,12,27.80
2018,08,05,16,13,27.70
2018,08,05,16,14,27.70
2018,08,05,16,15,27.80
2018,08,05,16,16,27.80
2018,08,05,16,17,27.80
2018,08,05,16,18,27.80
2018,08,05,16,19,27.90
2018,08,05,16,20,28.00
2018,08,05,16,21,28.10
2018,08,05,16,22,28.10
2018,08,05,16,23,28.20
2018,08,05,16,24,28.20
2018,08,05,16,25,28.20
2018,08,05,16,26,28.20
2018,08,05,16,27,28.20
2018,08,05,16,28,28.20
2018,08,05,16,29,28.10
2018,08,05,16,30,28.10
2018,08,05,16,31,28.10
2018,08,05,16,32,28.20
2018,08,05,16,33,28.20
2018,08,05,16,34,28.20
2018,08,05,16,35,28.20
2018,08,05,16,36,28.30
2018,08,05,16,37,28.30
2018,08,05,16,38,28.30
2018,08,05,16,39,28.20
2018,08,05,16,40,28.20
2018,08,05,16,41,28.10
2018,08,05,16,42,28.10
2018,08,05,16,43,28.10
2018,08,05,16,44,28.10
2018,08,05,16,45,28.10
2018,08,05,16,46,28.10
2018,08,05,16,47,28.10
2018,08,05,16,48,28.20
2018,08,05,16,49,28.20
2018,08,05,16,50,28.30
2018,08,05,16,51,28.30
2018,08,05,16,52,28.40
2018,08,05,16,53,28.50
2018,08,05,16,54,28.60
2018,08,05,16,55,28.60
2018,08,05,16,56,28.50
2018,08,05,16,57,28.50
2018,08,05,16,58,28.50
2018,08,05,16,59,28.50
2018,08,05,17,00,28.60
2018,08,05,17,01,28.60
2018,08,05,17,02,28.60
2018,08,05,17,03,28.70
2018,08,05,17,04,28.80
2018,08,05,17,05,28.80
2018,08,05,17,06,28.90
2018,08,05,17,07,28.90
2018,08,05,17,08,29.00
2018,08,05,17,09,29.10
2018,08,05,17,10,29.10
2018,08,05,17,11,29.20
2018,08,05,17,12,29.30
2018,08,05,17,13,29.30
2018,08,05,17,14,29.40
2018,08,05,17,15,29.40
2018,08,05,17,16,29.40
2018,08,05,17,17,29.40
2018,08,05,17,18,29.20
2018,08,05,17,19,29.10